MST,Max TemperatureF,Mean TemperatureF,Min TemperatureF,Max Dew PointF,MeanDew PointF,Min DewpointF,Max Humidity, Mean Humidity, Min Humidity, Max Sea Level PressureIn, Mean Sea Level PressureIn, Min Sea Level PressureIn, Max VisibilityMiles, Mean VisibilityMiles, Min VisibilityMiles, Max Wind SpeedMPH, Mean Wind SpeedMPH, Max Gust SpeedMPH,PrecipitationIn, CloudCover, Events, WindDirDegrees
2013-12-1,45,36,26,25,24,21,81,65,49,30.09,29.91,29.65,10,10,10,15,6,20,0.00,3,,264
2013-12-2,47,39,30,31,27,23,92,69,45,29.65,29.54,29.46,10,8,0,20,7,25,0.00,3,Fog,282
2013-12-3,30,18,6,28,12,3,100,90,80,29.88,29.64,29.47,8,2,0,12,4,14,0.24,8,Fog-Snow,35
2013-12-4,7,-2,-11,3,-4,-16,88,78,68,30.22,29.85,29.62,10,5,2,16,6,24,0.03,7,Snow,343
2013-12-5,5,-6,-17,-6,-15,-20,81,63,44,30.40,30.25,29.99,10,9,2,13,3,18,0.00,1,,303
2013-12-6,-1,-11,-21,-9,-16,-24,83,71,58,30.59,30.33,30.06,10,8,2,9,2,13,0.01,4,Snow,182
2013-12-7,1,-6,-14,-2,-11,-17,91,82,72,30.48,30.09,29.75,10,5,2,8,2,13,0.02,8,Snow,168
2013-12-8,13,2,-10,-1,-9,-15,87,61,35,30.19,29.88,29.62,10,7,2,17,4,28,0.02,4,Snow,268
2013-12-9,16,5,-6,12,2,-12,88,69,49,30.17,29.95,29.69,10,5,0,28,14,39,0.07,5,Fog-Snow,274
2013-12-10,22,13,3,16,9,-3,88,75,61,30.35,29.99,29.81,10,6,1,18,8,26,0.01,6,Snow,282
2013-12-11,23,12,0,7,3,-3,95,68,41,30.42,30.35,30.15,10,10,5,18,10,23,T,2,Snow,263
2013-12-12,46,32,18,18,12,4,62,47,31,30.28,30.14,29.88,10,10,10,15,7,22,0.00,0,,262
2013-12-13,37,31,24,21,17,13,81,62,43,30.12,29.96,29.83,10,10,10,10,4,15,0.00,5,,318
2013-12-14,34,30,25,21,19,16,88,72,56,30.21,30.13,30.07,10,10,10,22,11,28,0.00,2,,283
2013-12-15,42,35,27,21,20,17,69,54,38,30.06,29.98,29.93,10,10,10,17,9,26,0.00,2,,273
2013-12-16,42,35,27,20,18,17,63,50,36,30.17,30.04,29.90,10,10,10,22,10,36,0.00,0,,308
2013-12-17,44,34,23,20,18,16,69,51,33,30.26,30.10,29.84,10,10,10,17,6,23,0.00,0,,268
2013-12-18,54,40,26,22,19,16,69,48,26,29.81,29.74,29.65,10,10,10,16,7,25,0.00,0,,325
2013-12-19,26,13,-1,20,11,-5,100,88,75,30.06,29.79,29.68,10,3,0,14,5,18,0.45,6,Fog-Snow,60
2013-12-20,23,10,-3,10,3,-5,87,66,44,30.01,29.86,29.74,10,10,10,13,5,17,0.00,0,,269
2013-12-21,24,13,1,18,12,-3,92,77,61,29.95,29.73,29.58,10,6,1,12,2,15,0.04,7,Snow,224
2013-12-22,22,10,-3,12,4,-5,95,71,47,30.34,30.10,29.89,10,9,2,13,4,17,T,6,Snow,290
2013-12-23,42,19,-4,25,9,-8,87,65,42,30.38,30.20,29.94,10,10,2,17,6,21,0.00,3,,258
2013-12-24,42,32,22,26,20,10,81,60,38,30.24,30.02,29.83,10,10,2,26,8,38,T,3,Snow,305
2013-12-25,40,29,18,13,11,7,68,49,29,30.36,30.23,30.06,10,10,10,18,9,24,0.00,0,,265
2013-12-26,49,38,27,21,17,8,56,44,32,30.16,30.12,30.05,10,10,10,20,8,28,0.00,0,,272
2013-12-27,61,49,36,25,23,20,52,39,25,30.12,30.02,29.82,10,10,10,17,7,25,0.00,0,,268
2013-12-28,49,30,10,21,11,0,67,47,26,30.24,29.96,29.75,10,10,8,18,9,28,T,3,,310
2013-12-29,40,21,1,18,9,-4,86,63,39,30.33,30.08,29.81,10,9,2,17,6,23,0.01,4,Snow,260
2013-12-30,36,28,20,21,19,17,91,71,51,30.13,30.04,29.86,10,10,8,22,11,37,T,3,Snow,285
2013-12-31,48,38,27,28,22,15,72,59,45,29.97,29.89,29.83,10,10,10,17,5,24,0.00,5,,263